(°C)
12°
11°
11°
11°
12°
12°
11°
(°C)
სსდ
სსდ
სსდ
სსდ
სსდ
სსდ
სდ
(კმ/სთ)
30-46
29-46
27-42
26-39
26-39
25-38
24-35
(მმ)
0
0
0
0
0
0
0
(%)
0
0
0
0
0
0
6

მზის სიმაღლე

/ 3.5°
sun-icon
UV 1
07:16
17:30
კლებადი მთვარე (201°)
18:12
09:01

METAR 53.5°ჩრ. 50.15°აღმ. (UWWW)-თვის

დრო პირობები ტემპერატურა/
ნამი
ქარი ხილვადობა ამინდი ღრუბლები წნევა ცვლილება დაუმუშავებელი
VFR 12°C / 6°C 230º 19kt >10km - Few Clouds 3300ft 1002 No Significant change UWWW 221230Z 23010MPS 9999 FEW033 12/06 Q1002 R15/CLRD60 NOSIG RMK QFE740/0987
VFR 12°C / 6°C 220º 19kt >10km - Few Clouds 3300ft 1002 No Significant change UWWW 221200Z 22010MPS 9999 FEW033 12/06 Q1002 R15/CLRD60 NOSIG RMK QFE740/0987
VFR 12°C / 6°C 220º 21kt >10km - Few Clouds 3300ft 1002 No Significant change. Runway 15: Damp, 51-100% contamination with <1mm, friction coefficient 0.55. UWWW 221130Z 22011MPS 9999 FEW033 12/06 Q1002 R15/190055 NOSIG RMK QFE740/0987
VFR 12°C / 6°C 220º 19kt >10km - Few Clouds 3300ft 1002 No Significant change. Runway 15: Damp, 51-100% contamination with <1mm, friction coefficient 0.55. UWWW 221100Z 22010MPS 9999 FEW033 12/06 Q1002 R15/190055 NOSIG RMK QFE740/0987
VFR 12°C / 6°C 220º 21kt >10km - Few Clouds 3300ft 1002 No Significant change. Runway 15: Damp, 51-100% contamination with <1mm, friction coefficient 0.55. UWWW 221030Z 22011MPS 9999 FEW033 12/06 Q1002 R15/190055 NOSIG RMK QFE740/0987
VFR 11°C / 6°C 220º 21kt >10km - Few Clouds 3300ft 1002 No Significant change. Runway 15: Damp, 51-100% contamination with <1mm, friction coefficient 0.55. UWWW 221000Z 22011MPS 9999 FEW033 11/06 Q1002 R15/190055 NOSIG RMK QFE740/0987
VFR 11°C / 5°C 220º 21kt >10km - Few Clouds 3300ft 1002 No Significant change. Runway 15: Damp, 51-100% contamination with <1mm, friction coefficient 0.55. UWWW 220930Z 22011MPS 9999 FEW033 11/05 Q1002 R15/190055 NOSIG RMK QFE740/0987
VFR 11°C / 6°C 220º 19kt >10km - Few Clouds 3300ft 1001 No Significant change. Runway 15: Damp, 51-100% contamination with <1mm, friction coefficient 0.55. UWWW 220900Z 22010MPS 9999 FEW033 11/06 Q1001 R15/190055 NOSIG RMK QFE740/0986
VFR 12°C / 6°C 230º 17kt >10km - Few Clouds 3300ft 1002 No Significant change. Runway 15: Damp, 51-100% contamination with <1mm, friction coefficient 0.55. UWWW 220830Z 23009MPS 9999 FEW033 12/06 Q1002 R15/190055 NOSIG RMK QFE740/0987
VFR 12°C / 6°C 230º 16kt >10km - Few Clouds 3300ft 1002 No Significant change. Runway 15: Damp, 51-100% contamination with <1mm, friction coefficient 0.55. UWWW 220800Z 23008MPS 9999 FEW033 12/06 Q1002 R15/190055 NOSIG RMK QFE740/0987
VFR 11°C / 6°C 240º 16kt >10km - Few Clouds 3300ft 1002 No Significant change. Runway 15: Damp, 51-100% contamination with <1mm, friction coefficient 0.55. UWWW 220730Z 24008MPS 9999 FEW033 11/06 Q1002 R15/190055 NOSIG RMK QFE740/0987
VFR 11°C / 5°C 240º 17kt >10km - Few Clouds 3300ft 1002 No Significant change. Runway 15: Damp, 51-100% contamination with <1mm, friction coefficient 0.55. UWWW 220700Z 24009MPS 9999 FEW033 11/05 Q1002 R15/190055 NOSIG RMK QFE740/0987
VFR 11°C / 5°C 240º 16kt >10km - Clouds and Visibility OK 1002 No Significant change. Runway 15: Damp, 51-100% contamination with <1mm, friction coefficient 0.55. UWWW 220630Z 24008MPS CAVOK 11/05 Q1002 R15/190055 NOSIG RMK QFE740/0987
VFR 10°C / 6°C 220º 16kt >10km - Clouds and Visibility OK 1002 No Significant change. Runway 15: Damp, 51-100% contamination with <1mm, friction coefficient 0.55. UWWW 220600Z 22008MPS CAVOK 10/06 Q1002 R15/190055 NOSIG RMK QFE740/0987
VFR 10°C / 6°C 220º 14kt >10km - Clouds and Visibility OK 1002 No Significant change. Runway 15: Damp, 51-100% contamination with <1mm, friction coefficient 0.55. UWWW 220530Z 22007MPS CAVOK 10/06 Q1002 R15/190055 NOSIG RMK QFE740/0987
VFR 10°C / 6°C 230º 14kt >10km - Clouds and Visibility OK 1002 No Significant change. Runway 15: Damp, 51-100% contamination with <1mm, friction coefficient 0.55. UWWW 220500Z 23007MPS CAVOK 10/06 Q1002 R15/190055 NOSIG RMK QFE740/0987
VFR 10°C / 6°C 220º 12kt >10km - Clouds and Visibility OK 1003 No Significant change. Runway 15: Damp, 51-100% contamination with <1mm, friction coefficient 0.55. UWWW 220430Z 22006MPS CAVOK 10/06 Q1003 R15/190055 NOSIG RMK QFE741/0988
VFR 9°C / 6°C 200º 12kt >10km - Clouds and Visibility OK 1003 No Significant change. Runway 15: Damp, 51-100% contamination with <1mm, friction coefficient 0.55. UWWW 220400Z 20006MPS CAVOK 09/06 Q1003 R15/190055 NOSIG RMK QFE741/0988
VFR 9°C / 6°C 190º 10kt >10km - Clouds and Visibility OK 1003 No Significant change. Runway 15: Damp, 51-100% contamination with <1mm, friction coefficient 0.55. UWWW 220330Z 19005MPS CAVOK 09/06 Q1003 R15/190055 NOSIG RMK QFE741/0988
VFR 10°C / 6°C 210º 12kt >10km - Clouds and Visibility OK 1003 No Significant change. Runway 15: Damp, 51-100% contamination with <1mm, friction coefficient 0.55. UWWW 220300Z 21006MPS CAVOK 10/06 Q1003 R15/190055 NOSIG RMK QFE741/0988
VFR 9°C / 6°C 220º 10kt >10km - Scattered Clouds 3300ft 1003 No Significant change. Runway 15: Wet or puddles, 51-100% contamination with 1mm, friction coefficient 0.50. UWWW 220230Z 22005MPS 9999 SCT033 09/06 Q1003 R15/290150 NOSIG RMK QFE741/0988
VFR 9°C / 6°C 220º 8kt >10km - Scattered Clouds 3300ft 1003 No Significant change. Runway 15: Wet or puddles, 51-100% contamination with 1mm, friction coefficient 0.50. UWWW 220200Z 22004MPS 9999 SCT033 09/06 Q1003 R15/290150 NOSIG RMK QFE741/0988
VFR 10°C / 6°C 210º 6kt >10km - Scattered Clouds 3300ft 1003 No Significant change. Runway 33: Wet or puddles, 51-100% contamination with 1mm, friction coefficient 0.50. UWWW 220130Z 21003MPS 9999 SCT033 10/06 Q1003 R33/290150 NOSIG RMK QFE742/0989
VFR 10°C / 7°C 220º 6kt >10km - Scattered Clouds 3300ft 1003 No Significant change. Runway 33: Wet or puddles, 51-100% contamination with 1mm, friction coefficient 0.50. UWWW 220100Z 22003MPS 9999 SCT033 10/07 Q1003 R33/290150 NOSIG RMK QFE742/0989

VFR

12°C / 6°C

[მეტი]
ქარი 230º 19kt
ხილვადობა >10km
ამინდი -
ღრუბლები Few Clouds 3300ft
წნევა 1002
ცვლილება No Significant change
დაუმუშავებელი UWWW 221230Z 23010MPS 9999 FEW033 12/06 Q1002 R15/CLRD60 NOSIG RMK QFE740/0987

VFR

12°C / 6°C

[მეტი]
ქარი 220º 19kt
ხილვადობა >10km
ამინდი -
ღრუბლები Few Clouds 3300ft
წნევა 1002
ცვლილება No Significant change
დაუმუშავებელი UWWW 221200Z 22010MPS 9999 FEW033 12/06 Q1002 R15/CLRD60 NOSIG RMK QFE740/0987

VFR

12°C / 6°C

[მეტი]
ქარი 220º 21kt
ხილვადობა >10km
ამინდი -
ღრუბლები Few Clouds 3300ft
წნევა 1002
ცვლილება No Significant change. Runway 15: Damp, 51-100% contamination with <1mm, friction coefficient 0.55.
დაუმუშავებელი UWWW 221130Z 22011MPS 9999 FEW033 12/06 Q1002 R15/190055 NOSIG RMK QFE740/0987

VFR

12°C / 6°C

[მეტი]
ქარი 220º 19kt
ხილვადობა >10km
ამინდი -
ღრუბლები Few Clouds 3300ft
წნევა 1002
ცვლილება No Significant change. Runway 15: Damp, 51-100% contamination with <1mm, friction coefficient 0.55.
დაუმუშავებელი UWWW 221100Z 22010MPS 9999 FEW033 12/06 Q1002 R15/190055 NOSIG RMK QFE740/0987

VFR

12°C / 6°C

[მეტი]
ქარი 220º 21kt
ხილვადობა >10km
ამინდი -
ღრუბლები Few Clouds 3300ft
წნევა 1002
ცვლილება No Significant change. Runway 15: Damp, 51-100% contamination with <1mm, friction coefficient 0.55.
დაუმუშავებელი UWWW 221030Z 22011MPS 9999 FEW033 12/06 Q1002 R15/190055 NOSIG RMK QFE740/0987

VFR

11°C / 6°C

[მეტი]
ქარი 220º 21kt
ხილვადობა >10km
ამინდი -
ღრუბლები Few Clouds 3300ft
წნევა 1002
ცვლილება No Significant change. Runway 15: Damp, 51-100% contamination with <1mm, friction coefficient 0.55.
დაუმუშავებელი UWWW 221000Z 22011MPS 9999 FEW033 11/06 Q1002 R15/190055 NOSIG RMK QFE740/0987

VFR

11°C / 5°C

[მეტი]
ქარი 220º 21kt
ხილვადობა >10km
ამინდი -
ღრუბლები Few Clouds 3300ft
წნევა 1002
ცვლილება No Significant change. Runway 15: Damp, 51-100% contamination with <1mm, friction coefficient 0.55.
დაუმუშავებელი UWWW 220930Z 22011MPS 9999 FEW033 11/05 Q1002 R15/190055 NOSIG RMK QFE740/0987

VFR

11°C / 6°C

[მეტი]
ქარი 220º 19kt
ხილვადობა >10km
ამინდი -
ღრუბლები Few Clouds 3300ft
წნევა 1001
ცვლილება No Significant change. Runway 15: Damp, 51-100% contamination with <1mm, friction coefficient 0.55.
დაუმუშავებელი UWWW 220900Z 22010MPS 9999 FEW033 11/06 Q1001 R15/190055 NOSIG RMK QFE740/0986

VFR

12°C / 6°C

[მეტი]
ქარი 230º 17kt
ხილვადობა >10km
ამინდი -
ღრუბლები Few Clouds 3300ft
წნევა 1002
ცვლილება No Significant change. Runway 15: Damp, 51-100% contamination with <1mm, friction coefficient 0.55.
დაუმუშავებელი UWWW 220830Z 23009MPS 9999 FEW033 12/06 Q1002 R15/190055 NOSIG RMK QFE740/0987

VFR

12°C / 6°C

[მეტი]
ქარი 230º 16kt
ხილვადობა >10km
ამინდი -
ღრუბლები Few Clouds 3300ft
წნევა 1002
ცვლილება No Significant change. Runway 15: Damp, 51-100% contamination with <1mm, friction coefficient 0.55.
დაუმუშავებელი UWWW 220800Z 23008MPS 9999 FEW033 12/06 Q1002 R15/190055 NOSIG RMK QFE740/0987

VFR

11°C / 6°C

[მეტი]
ქარი 240º 16kt
ხილვადობა >10km
ამინდი -
ღრუბლები Few Clouds 3300ft
წნევა 1002
ცვლილება No Significant change. Runway 15: Damp, 51-100% contamination with <1mm, friction coefficient 0.55.
დაუმუშავებელი UWWW 220730Z 24008MPS 9999 FEW033 11/06 Q1002 R15/190055 NOSIG RMK QFE740/0987

VFR

11°C / 5°C

[მეტი]
ქარი 240º 17kt
ხილვადობა >10km
ამინდი -
ღრუბლები Few Clouds 3300ft
წნევა 1002
ცვლილება No Significant change. Runway 15: Damp, 51-100% contamination with <1mm, friction coefficient 0.55.
დაუმუშავებელი UWWW 220700Z 24009MPS 9999 FEW033 11/05 Q1002 R15/190055 NOSIG RMK QFE740/0987

VFR

11°C / 5°C

[მეტი]
ქარი 240º 16kt
ხილვადობა >10km
ამინდი -
ღრუბლები Clouds and Visibility OK
წნევა 1002
ცვლილება No Significant change. Runway 15: Damp, 51-100% contamination with <1mm, friction coefficient 0.55.
დაუმუშავებელი UWWW 220630Z 24008MPS CAVOK 11/05 Q1002 R15/190055 NOSIG RMK QFE740/0987

VFR

10°C / 6°C

[მეტი]
ქარი 220º 16kt
ხილვადობა >10km
ამინდი -
ღრუბლები Clouds and Visibility OK
წნევა 1002
ცვლილება No Significant change. Runway 15: Damp, 51-100% contamination with <1mm, friction coefficient 0.55.
დაუმუშავებელი UWWW 220600Z 22008MPS CAVOK 10/06 Q1002 R15/190055 NOSIG RMK QFE740/0987

VFR

10°C / 6°C

[მეტი]
ქარი 220º 14kt
ხილვადობა >10km
ამინდი -
ღრუბლები Clouds and Visibility OK
წნევა 1002
ცვლილება No Significant change. Runway 15: Damp, 51-100% contamination with <1mm, friction coefficient 0.55.
დაუმუშავებელი UWWW 220530Z 22007MPS CAVOK 10/06 Q1002 R15/190055 NOSIG RMK QFE740/0987

VFR

10°C / 6°C

[მეტი]
ქარი 230º 14kt
ხილვადობა >10km
ამინდი -
ღრუბლები Clouds and Visibility OK
წნევა 1002
ცვლილება No Significant change. Runway 15: Damp, 51-100% contamination with <1mm, friction coefficient 0.55.
დაუმუშავებელი UWWW 220500Z 23007MPS CAVOK 10/06 Q1002 R15/190055 NOSIG RMK QFE740/0987

VFR

10°C / 6°C

[მეტი]
ქარი 220º 12kt
ხილვადობა >10km
ამინდი -
ღრუბლები Clouds and Visibility OK
წნევა 1003
ცვლილება No Significant change. Runway 15: Damp, 51-100% contamination with <1mm, friction coefficient 0.55.
დაუმუშავებელი UWWW 220430Z 22006MPS CAVOK 10/06 Q1003 R15/190055 NOSIG RMK QFE741/0988

VFR

9°C / 6°C

[მეტი]
ქარი 200º 12kt
ხილვადობა >10km
ამინდი -
ღრუბლები Clouds and Visibility OK
წნევა 1003
ცვლილება No Significant change. Runway 15: Damp, 51-100% contamination with <1mm, friction coefficient 0.55.
დაუმუშავებელი UWWW 220400Z 20006MPS CAVOK 09/06 Q1003 R15/190055 NOSIG RMK QFE741/0988

VFR

9°C / 6°C

[მეტი]
ქარი 190º 10kt
ხილვადობა >10km
ამინდი -
ღრუბლები Clouds and Visibility OK
წნევა 1003
ცვლილება No Significant change. Runway 15: Damp, 51-100% contamination with <1mm, friction coefficient 0.55.
დაუმუშავებელი UWWW 220330Z 19005MPS CAVOK 09/06 Q1003 R15/190055 NOSIG RMK QFE741/0988

VFR

10°C / 6°C

[მეტი]
ქარი 210º 12kt
ხილვადობა >10km
ამინდი -
ღრუბლები Clouds and Visibility OK
წნევა 1003
ცვლილება No Significant change. Runway 15: Damp, 51-100% contamination with <1mm, friction coefficient 0.55.
დაუმუშავებელი UWWW 220300Z 21006MPS CAVOK 10/06 Q1003 R15/190055 NOSIG RMK QFE741/0988

VFR

9°C / 6°C

[მეტი]
ქარი 220º 10kt
ხილვადობა >10km
ამინდი -
ღრუბლები Scattered Clouds 3300ft
წნევა 1003
ცვლილება No Significant change. Runway 15: Wet or puddles, 51-100% contamination with 1mm, friction coefficient 0.50.
დაუმუშავებელი UWWW 220230Z 22005MPS 9999 SCT033 09/06 Q1003 R15/290150 NOSIG RMK QFE741/0988

VFR

9°C / 6°C

[მეტი]
ქარი 220º 8kt
ხილვადობა >10km
ამინდი -
ღრუბლები Scattered Clouds 3300ft
წნევა 1003
ცვლილება No Significant change. Runway 15: Wet or puddles, 51-100% contamination with 1mm, friction coefficient 0.50.
დაუმუშავებელი UWWW 220200Z 22004MPS 9999 SCT033 09/06 Q1003 R15/290150 NOSIG RMK QFE741/0988

VFR

10°C / 6°C

[მეტი]
ქარი 210º 6kt
ხილვადობა >10km
ამინდი -
ღრუბლები Scattered Clouds 3300ft
წნევა 1003
ცვლილება No Significant change. Runway 33: Wet or puddles, 51-100% contamination with 1mm, friction coefficient 0.50.
დაუმუშავებელი UWWW 220130Z 21003MPS 9999 SCT033 10/06 Q1003 R33/290150 NOSIG RMK QFE742/0989

VFR

10°C / 7°C

[მეტი]
ქარი 220º 6kt
ხილვადობა >10km
ამინდი -
ღრუბლები Scattered Clouds 3300ft
წნევა 1003
ცვლილება No Significant change. Runway 33: Wet or puddles, 51-100% contamination with 1mm, friction coefficient 0.50.
დაუმუშავებელი UWWW 220100Z 22003MPS 9999 SCT033 10/07 Q1003 R33/290150 NOSIG RMK QFE742/0989

TAF 53.5°ჩრ. 50.15°აღმ. (UWWW)-თვის

From till


Maximum Temperature 13ºC on . Minimum Temperature 7ºC on .
From till Wind 210º 16kt. Gust 25kt. Visibility 10km or more. Broken Clouds 1600ft.
Temporarly from till Wind 250º 21kt. Gust 31kt.

დაუმუშავებელი: TAF UWWW 221055Z 2212/2312 21008G13MPS 9999 BKN016 TX13/2212Z TN07/2303Z TEMPO 2212/2215 25011G16MPS

მიმდინარე სატელიტისა და წვიმის სურათები 53.5°ჩრ. 50.15°აღმ.-თვის

ლოკაციის მარკერი დაყენებყლია 53.5°ჩრ. 50.15°აღმ.ზე. [მეტი]

რეალურ დროში სატელიტური სურათი აერთიანებს ხილულ სინათლეს დღისით ღამის განმავლობაში ინფრაწითელ გამოსხივებასთან ერთად. ღამით, სურათი არ არის მუქი, რადგან ინფრაწითელ გამოსხივებას შეუძლია ტემპერატურის განსხვავებების დადგენა. სამწუხაროდ, დაბალი ღრუბლები და ნისლი ძნელია განასხვავონ მიწის ტემპერატურისგან და, შესაბამისად, ისინი შეიძლება თითქმის არ ჩანდეს ღამით. Meteosat სატელიტური გამოსახულება ევროპისთვის ახლდება რეალურ დროში ყოველ 5 წუთში. GOES-16/GOES-17 (ჩრდილოეთი და სამხრეთ ამერიკა) და ჰიმავარი (აზია) გამოსახულებები ახლდება ყოველ 10 წუთში.

საავტორო უფლებები 2021 EUMETSAT / meteoblue. / საავტორო უფლებები 2021 meteoblue

რადარის და ნალექების მაჩვენებელი 53.5°ჩრ. 50.15°აღმ. -თვის

გაწურეთ
Მსუბუქი
ზომიერი
Მძიმე
Ძალიან მძიმე
სეტყვა

მდებარეობის მარკერი მოთავსებულია 53.5°ჩრ. 50.15°აღმ. -ზე. ეს ანიმაცია აჩვენებს ნალექების სარადარო მონაცემებს როგორც ბოლო საათის განმავლობაში, ასევე 1h პროგნოზს. წვიმა ან თოვლის მსუბუქი ვარდნა შეიძლება უჩინარი იყოს რადარისთვის. ნალექების ინტენსივობა არის კოდირებული ფერით, დაწყებული ღია ლურჯიდან ნარინჯისფერამდე.